Theta_e
288 290 291 293 296 298 297 293 293 292 290 289 289 288 287 285 283 282 282 281 280 279 280 279 279 279 279 278 278 278 278 278
287 289 290 291 291 293 293 292 290 290 289 289 287 286 285 284 283 282 281 280 280 280 280 279 279 279 279 279 278 278 277 277
287 287 287 288 287 288 291 291 290 289 288 287 286 285 284 284 282 281 280 280 280 280 280 279 279 279 279 278 278 278 277 277
285 285 286 286 287 288 288 289 288 287 287 286 284 284 283 282 281 280 279 280 280 280 280 279 279 278 279 278 278 278 277 277
284 285 286 287 287 287 287 287 286 286 286 285 284 284 283 282 281 280 280 279 279 280 279 279 279 278 278 278 277 277 277 276
285 285 285 285 286 287 287 286 285 286 285 285 284 284 283 281 280 280 279 279 279 279 278 278 278 278 278 277 277 277 276 276
286 285 285 286 286 286 286 285 285 285 284 285 283 283 282 281 280 280 279 279 279 278 278 277 278 282 283 279 277 277 276 275
288 287 287 286 287 286 286 285 284 283 282 282 283 282 281 280 280 279 279 279 278 278 278 277 277 283 284 283 277 277 276 276
290 289 288 287 286 286 285 283 283 283 282 282 282 282 281 280 280 279 279 278 278 278 278 278 278 283 285 285 278 277 276 276
292 290 287 286 286 284 282 282 283 282 282 282 283 282 281 280 279 279 279 278 278 279 278 278 278 283 284 284 281 278 276 276
289 286 284 283 283 282 281 281 281 282 282 282 283 282 281 281 280 280 279 279 278 278 279 278 279 283 284 285 282 278 278 277
284 284 283 282 282 281 280 280 281 281 281 282 282 282 282 281 280 279 279 279 278 278 278 279 279 280 284 287 282 279 278 277
281 280 280 280 281 279 279 279 279 280 280 281 282 282 282 281 280 280 280 279 278 278 278 278 278 279 282 285 286 283 279 276
279 278 278 277 279 278 277 279 279 280 281 282 282 282 282 282 281 280 281 280 279 278 278 278 275 276 282 282 284 285 282 278
278 277 275 276 278 279 280 283 283 282 282 282 282 282 283 283 282 283 281 280 280 278 278 278 272 272 273 277 279 281 281 280
278 276 274 274 274 275 277 280 280 279 278 280 280 281 279 277 279 279 275 281 279 278 277 273 271 272 274 273 269 268 271 265
276 274 272 272 271 271 273 276 276 274 274 274 274 273 273 273 271 278 278 280 280 279 274 267 275 277 279 279 278 277 276 262
273 271 270 268 266 265 269 273 272 272 270 270 271 271 270 270 271 271 276 280 280 279 277 276 275 278 278 279 279 276 273 263
270 268 266 265 263 262 266 269 268 268 268 268 267 267 266 268 268 269 271 271 267 277 278 279 278 278 277 277 269 258 258 256
266 265 265 263 260 261 264 266 265 266 265 264 264 263 264 264 264 264 264 264 260 262 266 265 274 274 272 267 256 253 251 249
Wind_Speed
7 8 7 9 11 12 13 13 14 13 11 11 12 11 11 10 11 11 9 10 10 8 8 8 7 7 7 6 6 7 4 4
7 7 8 7 9 11 12 14 13 13 11 12 11 12 11 12 11 11 10 10 11 10 10 9 9 7 7 6 7 8 7 5
7 7 7 8 8 10 11 13 14 12 11 12 12 11 12 12 12 11 11 10 10 10 9 9 8 8 9 9 7 9 8 7
6 8 9 9 10 12 11 11 12 12 12 12 13 14 14 12 12 11 11 11 10 10 11 11 10 10 7 7 8 7 7 8
7 9 10 11 12 11 11 11 12 13 14 14 14 14 14 14 14 15 14 13 11 10 10 10 9 8 8 7 7 6 6 6
10 11 9 10 10 11 12 12 12 13 14 14 13 13 13 14 13 13 13 12 11 10 8 7 8 7 8 8 7 7 6 5
10 9 13 15 14 13 14 13 13 13 12 10 11 12 12 12 12 12 11 11 11 11 10 9 6 14 15 9 7 6 7 7
13 14 13 16 14 17 14 12 14 13 11 12 13 14 14 13 13 13 14 13 11 10 10 9 7 16 16 15 5 6 7 6
11 13 14 11 13 11 12 14 14 14 13 13 14 14 13 14 14 13 12 13 12 11 10 9 8 16 15 14 6 5 6 7
8 7 7 12 11 12 12 13 13 14 13 14 14 14 14 14 13 11 11 10 10 9 9 9 6 17 16 15 6 8 9 7
5 4 7 7 10 12 12 13 13 12 12 12 13 13 13 12 12 9 9 9 7 7 8 8 8 15 18 16 6 9 7 6
3 4 6 8 10 9 9 11 8 9 10 10 10 11 11 10 8 9 9 8 7 7 6 8 9 9 19 18 8 9 7 7
6 6 5 6 9 8 7 6 8 9 9 10 10 8 9 11 9 9 9 8 8 7 6 7 8 13 17 19 22 17 9 8
6 7 6 6 7 8 5 10 10 11 10 10 11 10 11 11 11 8 9 8 7 7 8 8 5 5 18 19 23 24 13 7
8 7 6 6 7 7 7 9 11 11 10 10 10 10 9 8 8 8 8 7 7 7 7 7 4 5 5 7 8 15 13 11
7 7 6 7 7 6 5 7 8 8 7 7 6 7 6 4 4 5 2 7 6 6 6 5 5 6 10 8 4 4 5 2
8 10 8 9 9 7 5 5 8 7 5 5 5 4 5 6 4 4 5 8 4 6 6 1 3 8 11 12 11 10 10 3
9 9 9 9 9 7 6 5 5 7 6 4 5 5 6 4 6 6 4 9 8 8 7 9 8 9 9 9 7 8 5 3
10 10 8 9 9 7 6 6 7 7 7 4 4 4 4 5 4 5 7 6 2 5 7 10 9 9 8 10 8 4 6 3
11 9 8 9 9 8 6 7 7 6 4 4 4 4 4 4 4 4 4 5 4 2 8 5 9 8 9 8 3 3 2 2
Wind_Direction
200 186 184 187 183 180 179 178 174 169 170 171 169 166 161 158 167 162 152 150 148 147 147 141 135 131 125 123 127 130 132 129
206 188 179 170 177 175 171 168 171 174 170 168 168 165 161 169 168 166 151 153 156 158 152 150 144 141 133 136 146 140 136 129
200 176 170 176 173 180 180 177 176 172 168 173 164 164 170 173 167 159 155 158 155 154 152 150 151 153 153 155 162 153 149 150
184 190 189 188 192 189 184 183 169 164 168 171 170 173 176 169 163 158 154 157 154 159 164 164 164 162 162 165 165 161 157 162
206 205 201 193 190 194 193 182 171 172 178 180 178 177 174 168 168 168 168 163 166 170 167 168 165 166 164 159 159 159 164 168
212 207 202 197 193 194 193 185 177 181 186 190 174 175 170 170 170 167 167 168 164 159 159 158 166 170 166 167 167 164 170 179
216 197 203 200 200 195 195 187 177 186 189 176 172 165 168 165 165 163 165 161 156 163 166 168 177 183 182 166 170 176 182 191
212 213 208 206 191 199 189 172 180 181 172 172 170 171 170 165 165 171 169 159 168 168 167 176 170 187 189 189 185 185 201 192
220 217 214 195 192 177 169 175 179 182 178 172 171 170 167 166 172 171 169 169 169 171 174 173 184 190 193 198 170 207 212 201
236 222 173 183 176 163 164 171 178 186 181 174 172 169 169 175 170 162 160 166 169 167 166 174 177 193 200 210 180 219 224 212
238 184 159 163 151 154 165 170 184 177 173 170 169 170 171 167 162 154 155 157 153 155 173 178 197 202 206 213 210 225 224 219
129 162 150 137 142 152 155 178 157 145 153 159 154 150 151 143 139 140 144 144 159 168 170 198 204 214 220 219 212 229 227 226
100 97 106 120 125 129 143 128 121 124 130 135 136 132 136 139 140 147 152 159 170 176 197 212 215 213 218 233 231 225 225 224
106 97 72 80 109 118 139 129 128 127 133 134 133 135 147 154 159 162 171 181 183 189 205 220 194 210 230 233 236 237 233 221
104 98 88 92 103 120 132 136 135 134 136 140 147 151 156 162 166 174 182 188 191 193 210 218 178 197 205 223 232 242 242 259
97 93 74 68 68 58 86 114 113 114 122 131 133 143 132 105 151 167 168 190 192 205 200 178 208 213 208 199 203 215 234 124
80 89 72 68 58 38 39 106 123 119 127 134 130 125 130 126 95 87 153 184 185 187 180 206 174 198 203 208 209 209 213 98
82 83 80 71 59 19 13 70 94 114 120 116 119 129 137 133 136 124 110 150 159 150 154 160 177 167 171 187 154 82 103 91
81 71 69 67 50 1 13 73 79 84 85 105 117 122 125 137 138 140 147 145 77 93 101 140 140 140 126 118 98 42 34 88
76 64 60 62 39 0 16 64 73 82 81 92 96 91 106 117 123 129 126 131 125 72 66 37 133 121 100 65 98 132 137 129